Weather History for Baker, MT

Change the Weather History Date:

Wednesday, May 22, 2013

  Actual Average Record
Temperature  
Mean Temperature 54 °F -  
Max Temperature 64 °F 66 °F 88 °F (2006)
Min Temperature 44 °F 42 °F 32 °F (2002)
Degree Days  
Heating Degree Days 11    
Growing Degree Days 4 (Base 50)    
Moisture  
Dew Point 38 °F    
Average Humidity 61    
Maximum Humidity 87    
Minimum Humidity 26    
Precipitation  
Precipitation 0.01 in - - ()
Sea Level Pressure  
Sea Level Pressure 30.06 in    
Wind  
Wind Speed 11 mph (East)    
Max Wind Speed 25 mph    
Max Gust Speed 31 mph    
Visibility 10 miles    
Events Rain    
Averages and records for this station are not official NWS values.
T = Trace of Precipitation, MM = Missing Value Source: NWS Daily Summary

Daily Weather History Graph

Daily Weather History Graph

Search for Another Location

Airport:

Trip Planner

Search our weather history database for the weather conditions in past years. The results will help you decide how hot, cold, wet, or windy it might be!

Date:

Astronomy

May. 22, 2013 Rise Set
Actual Time 5:15 AM MDT 8:32 PM MDT
Civil Twilight 4:39 AM MDT 9:08 PM MDT
Nautical Twilight 3:51 AM MDT 9:56 PM MDT
Astronomical Twilight 2:52 AM MDT 10:56 PM MDT
Moon 5:49 PM MDT (5/22) 3:31 AM MDT (5/22)
Length of Visible Light 16h 29m
Length of Day
15h 16m
Waxing Gibbous, 92% of the Moon is Illuminated
May 22
Waxing Gibbous
May 24
Full
May 31
Last Quarter
Jun 8
New
Jun 16
First Quarter

Hourly Weather History & Observations

Time (MDT) Temp. Windchill Dew Point Humidity Pressure Visibility Wind Dir Wind Speed Gust Speed Precip Events Conditions
12:22 AM 46.4 °F 42.4 °F 42.8 °F 87% 30.02 in 2.5 mi ENE 8.1 mph - 0.01 in Rain Light Rain
12:32 AM 46.4 °F 45.2 °F 42.8 °F 87% 30.01 in 4.0 mi East 3.5 mph - 0.01 in Rain Light Rain
12:42 AM 46.4 °F 43.5 °F 42.8 °F 87% 30.01 in 10.0 mi East 5.8 mph - 0.01 in   Overcast
12:51 AM 46.9 °F - 42.1 °F 83% 30.03 in 10.0 mi East 8.1 mph - 0.01 in Rain Light Rain
1:51 AM 46.9 °F - 41.0 °F 80% 30.03 in 10.0 mi East 10.4 mph - 0.00 in   Overcast
2:51 AM 46.0 °F 39.9 °F 41.0 °F 83% 30.02 in 10.0 mi East 13.8 mph - N/A   Overcast
3:51 AM 45.0 °F 38.5 °F 39.9 °F 82% 30.01 in 10.0 mi East 13.8 mph - N/A   Overcast
4:51 AM 44.1 °F 40.8 °F 39.9 °F 85% 30.03 in 10.0 mi East 5.8 mph - N/A   Mostly Cloudy
5:51 AM 45.0 °F 42.6 °F 39.9 °F 82% 30.05 in 10.0 mi East 4.6 mph - N/A   Overcast
6:51 AM 46.9 °F - 39.9 °F 77% 30.06 in 10.0 mi ENE 6.9 mph - N/A   Mostly Cloudy
7:51 AM 48.9 °F - 41.0 °F 74% 30.07 in 10.0 mi ENE 9.2 mph - N/A   Mostly Cloudy
8:51 AM 52.0 °F - 39.9 °F 63% 30.07 in 10.0 mi ESE 11.5 mph 18.4 mph N/A   Mostly Cloudy
9:51 AM 53.1 °F - 37.0 °F 55% 30.06 in 10.0 mi East 19.6 mph - N/A   Mostly Cloudy
10:51 AM 55.9 °F - 37.0 °F 49% 30.07 in 10.0 mi East 18.4 mph - N/A   Clear
11:51 AM 59.0 °F - 39.0 °F 48% 30.07 in 10.0 mi East 17.3 mph 26.5 mph N/A   Partly Cloudy
12:51 PM 60.1 °F - 39.0 °F 46% 30.06 in 10.0 mi East 12.7 mph 19.6 mph N/A   Scattered Clouds
1:51 PM 61.0 °F - 37.9 °F 42% 30.06 in 10.0 mi East 16.1 mph 26.5 mph N/A   Partly Cloudy
2:51 PM 64.0 °F - 39.9 °F 41% 30.05 in 10.0 mi East 18.4 mph 25.3 mph N/A   Scattered Clouds
3:51 PM 64.0 °F - 35.1 °F 34% 30.04 in 10.0 mi East 25.3 mph 31.1 mph N/A   Clear
4:51 PM 64.0 °F - 30.9 °F 29% 30.04 in 10.0 mi East 21.9 mph 28.8 mph N/A   Clear
5:51 PM 64.0 °F - 30.9 °F 29% 30.04 in 10.0 mi East 19.6 mph 31.1 mph N/A   Clear
6:51 PM 62.1 °F - 27.0 °F 26% 30.05 in 10.0 mi ESE 20.7 mph 28.8 mph N/A   Clear
7:51 PM 57.9 °F - 30.0 °F 35% 30.07 in 10.0 mi East 15.0 mph - N/A   Clear
8:51 PM 51.1 °F - 34.0 °F 52% 30.10 in 10.0 mi ESE 11.5 mph - N/A   Clear
9:51 PM 48.9 °F - 34.0 °F 56% 30.12 in 10.0 mi ESE 11.5 mph - N/A   Clear
10:51 PM 46.9 °F - 34.0 °F 61% 30.14 in 10.0 mi ESE 11.5 mph - N/A   Clear
11:51 PM 46.9 °F - 34.0 °F 61% 30.14 in 10.0 mi ESE 13.8 mph - N/A   Clear